Regional Weather Roundup
Issued by NWS Sterling, VA

Home | Current Version | Previous Version | Text Only | Print | Product List | Glossary Off
Versions: 1 2 3 4 5 6 7 8 9 10 11 12 13 14 15 16 17 18 19 20 21 22 23 24 25 26 27 28 29 30 31 32 33 34 35 36 37 38 39 40 41 42 43 44 45 46 47 48 49 50

000
ASUS41 KLWX 312310
RWRLWX

REGIONAL WEATHER ROUNDUP
NATIONAL WEATHER SERVICE BALTIMORE MD/WASHINGTON DC
700 PM EDT THU JUL 31 2014

Note: "FAIR" indicates few or no clouds below 12,000 feet
with no significant weather and/or obstructions to visibility.
 TC=TEMPERATURE CELSIUS

 * =Non NWS site. Station does not report precipitation (e.g. rain,
    snow, etc.), thunder, or fog.

DCZ001-MDZ009-015-VAZ040>042-051-053>054-010000-
WASHINGTON METRO
  /KDAA//-FT BELVOIR

CITY           SKY/WX    TMP DP  RH WIND       PRES   REMARKS
WASHINGTON NAT PTSUNNY   86  58  38 S8        30.08S
DULLES         PTSUNNY   82  57  42 SW9       30.09R
ANDREWS AFB    PTSUNNY   83  61  47 S12       30.09S
QUANTICO       PTSUNNY   82  63  52 SW7       30.09S
COLLEGE PARK*  PTSUNNY   86  55  35 S6        30.08R
LEESBURG*      PTSUNNY   84  61  45 SW3       30.10R
GAITHERSBURG*  MOSUNNY   82  57  42 CALM      30.13R

$$

MDZ006>007-011-014-010000-
BALTIMORE METRO

CITY           SKY/WX    TMP DP  RH WIND       PRES   REMARKS
BWI AIRPORT    PTSUNNY   80  65  59 SE8       30.08R
MD SCIENCE CTR   N/A     83  64  52 MISG      30.08R
MARTIN STATE   MOSUNNY   81  70  69 S13       30.10R
ANNAPOLIS      PTSUNNY   80  69  69 S13       30.08S
FORT MEADE*    MOSUNNY   79  64  61 SE6       30.11R

$$

MDZ012-015-019>023-010000-
MARYLAND EASTERN SHORE

CITY           SKY/WX    TMP DP  RH WIND       PRES   REMARKS
OCEAN CITY     CLOUDY    75  68  78 VRB5      30.13R
SALISBURY      CLOUDY    82  64  54 S5        30.12S
BAY BRIDGE AP*   N/A     81  64  57 S9        30.09S
CAMBRIDGE*     PTSUNNY   81  64  57 S5        30.11R
EASTON*        PTSUNNY   82  66  57 SW10      30.14R

$$

MDZ017>025-010000-
SOUTHERN MARYLAND

CITY           SKY/WX    TMP DP  RH WIND       PRES   REMARKS
PATUXENT RIVER PTSUNNY   81  64  56 S9        30.10S
ST INIGOES     CLOUDY    81  65  58 S6        30.10S
LEONARDTOWN*   CLOUDY    79  61  53 S8        30.12S

$$

MDZ003>005-010000-
NORTH CENTRAL MARYLAND

CITY           SKY/WX    TMP DP  RH WIND       PRES   REMARKS
FREDERICK*     NOT AVBL
HAGERSTOWN APT MOSUNNY   81  59  47 S6        30.10R
WESTMINSTER*   MOSUNNY   81  63  54 CALM      30.11S

$$

MDZ501>502-010000-
WESTERN MARYLAND

CITY           SKY/WX    TMP DP  RH WIND       PRES   REMARKS
OAKLAND*       MOSUNNY   68  55  64 CALM      30.20S
CUMBERLAND*    SUNNY     84  54  34 CALM      30.13R

$$

VAZ025>031-010000-
SHENANDOAH VALLEY

CITY           SKY/WX    TMP DP  RH WIND       PRES   REMARKS
WINCHESTER*    CLOUDY    79  59  50 N3        30.11R
STAUNTON*      PTSUNNY   80  58  47 SE8       30.13S

$$

WVZ021-048>050-054>055-010000-
EASTERN WEST VIRGINIA PANHANDLE

CITY           SKY/WX    TMP DP  RH WIND       PRES   REMARKS
MARTINSBURG    MOSUNNY   78  60  53 SE5       30.10R
PETERSBURG*    PTSUNNY   80  56  44 SE3       30.11R

$$

VAZ036>039-050-010000-
CENTRAL FOOTHILLS

CITY           SKY/WX    TMP DP  RH WIND       PRES   REMARKS
CHARLOTTESVILL PTSUNNY   80  61  52 S8        30.10S
ORANGE*        PTSUNNY   81  63  54 SE6       30.12R

$$

VAZ055>057-010000-
NORTH AND CENTRAL PIEDMONT

CITY           SKY/WX    TMP DP  RH WIND       PRES   REMARKS
FREDERICKSBRG* PTSUNNY   83  64  52 S7        30.09S
STAFFORD*      PTSUNNY   80  64  57 SW3       30.13S

$$

NCZ024-NYZ072-PAZ021-071-VAZ022-071-010000-
OTHER REGIONAL OBSERVATIONS

CITY           SKY/WX    TMP DP  RH WIND       PRES   REMARKS
NEW YORK CITY  PTSUNNY   77  63  61 MISG      30.12R
PHILADELPHIA   PTSUNNY   84  59  42 SW10      30.09R
PITTSBURGH     MOSUNNY   76  58  53 W5        30.10R
ROANOKE        CLOUDY    77  61  57 S7        30.15R
RICHMOND       CLOUDY    83  64  52 S9        30.11R
RALEIGH        CLOUDY    78  67  68 E3        30.13R

$$

ANZ530>537-010000-
MARINE OBSERVATIONS

STATION/POSITION TIME  TEMP    WIND        PRES
                       AIR SEA DIR/SP/G
                 (UTC) (F)     (DEG/KT/KT) (MB)
THOMAS PT LIGHT  2300   79 78  170/ 16/ 18 1019.2R
BALT KEY BRIDGE  2300   80     150/ 17/ 19 1017.8S
COVE POINT       2300   80     200/ 11/ 13 1019.2S
LEWISETTA        2300   80 79  200/  4/  5 1019.3R
SOLOMONS ISLAND  2300      80                N/A
PINEY POINT      2300          200/  8/ 10   N/A

$$



USA.gov is the U.S. government's official web portal to all federal, state and local government web resources and services.